Meath Environmental Platform

Observations for Trim Patrick St

Time AQI Temp °C Hum % Pres Pa CO μg/m³ H₂S μg/m³ NO μg/m³ NO₂ μg/m³ O₃ μg/m³ SO₂ μg/m³ PM1 μg/m³ PM2.5 μg/m³ PM10 μg/m³
Sunday 2 August 2026
20:30 3 18 63 75,011 0 8.39 1.25 34.63 30.94 0.34 4.57 8.51 9.36
20:29 3 18 64 74,960 0 8.89 1.27 29.97 40.13 1.11 4.57 8.48 9.33
20:28 3 18.1 63 74,915 0 7.61 1.31 33.53 33.41 0.12 2 7.04 7.75
20:27 3 18.1 63 74,876 0 8.94 1.31 39.23 28.55 1.02 4.57 8.52 9.37
20:26 3 18.1 63 74,837 0 9.36 1.31 42.8 21.77 0 3.71 7.79 8.57
20:25 3 18.2 62 74,799 0 9.47 1.3 40.59 37.61 0.77 3.71 8.59 9.45
20:24 3 18.2 63 74,778 0 9.44 1.29 28.43 36.37 0.95 4.57 9.25 10.18
20:23 3 18.2 62 74,750 0 8.92 1.26 37.38 38.65 0.69 2.86 7.88 8.67
20:22 3 18.3 62 74,721 0 10.04 1.22 33.43 40.53 0.77 2 6.37 7.01
20:20 3 18.3 63 74,683 0.02 10.28 1.14 42.73 22.6 1.63 4.57 9.28 10.21
20:19 3 18.3 62 74,658 0 8.1 1.21 36.29 29.25 0.8 3.71 8.6 9.46
20:16 3 18.5 63 74,630 0.03 9.15 1.14 30.83 34.92 1.68 2.86 7.08 7.79
20:15 3 18.5 62 74,625 0 9.88 1.15 35.12 33.42 0.95 3.71 8.63 9.49
20:12 3 18.6 63 74,585 0 9.65 1.21 34.4 32.14 1.77 3.71 7.83 8.61
20:11 3 18.6 62 74,560 0 9.62 1.23 34.04 32.36 1.55 4.57 9.32 10.26
20:09 3 18.6 62 74,507 0.04 12.3 1.25 42.96 29.23 1.28 3.71 7.89 8.68
20:08 3 18.7 62 74,483 0.07 11.88 1.24 46.96 21.73 2.24 6.29 10.81 11.9
20:07 3 18.7 62 74,453 0 10.88 1.24 44.72 30.52 1.34 3.71 7.88 8.67
20:06 3 18.8 62 74,430 0 9.46 1.22 27.42 39.51 2.35 4.57 9.35 10.29
20:05 3 18.8 62 74,412 0.01 10.99 1.09 36.09 32.17 2.11 2 6.43 7.07